Tracking 25656 objects as of 21-May-2022
HD Live streaming from Space Station
objects crossing your sky now

FLOCK 4S 12

Track FLOCK 4S 12 now!
10-day predictions
FLOCK 4S 12 is classified as:


NORAD ID: 47471
Int'l Code: 2021-006BL
Perigee: 520.6 km
Apogee: 532.0 km
Inclination: 97.4 °
Period: 95.0 minutes
Semi major axis: 6897 km
RCS: Unknown
Launch date: January 24, 2021
Source: United States (US)
Launch site: ()
aabbcc
Your satellite tracking list
Your tracking list is empty




NASA's NSSDC Master Catalog

Two Line Element Set (TLE):
1 47471U 21006BL  22141.16266410  .00009529  00000-0  50461-3 0  9992
2 47471  97.4443 200.6065 0008292  42.0904 318.0964 15.15596864 73118
Source of the keplerian elements: AFSPC